#timestamp,LO_Frequency,Hit,StdDev 
1507474815.2,286047001.1,N
1507474835.0,286047001.2,N
1507474835.9,286047001.2,N
1507474855.7,286046998.7,N
1507474875.6,286046998.2,N
1507474895.4,286047001.1,N
1507474915.3,286046998.3,N
1507474935.1,286046999.3,N
1507474936.0,286046999.3,N
1507474955.8,286046998.2,N
1507474975.7,286046998.6,N
1507474995.5,286047002.5,N
1507475015.3,286047000.2,N
1507475035.2,286047000.9,N
1507475055.0,286046998.8,N
1507475055.9,286046998.8,N
1507475075.8,286046999.4,N
1507475095.6,286046998.3,N
1507475115.4,286046999.6,N
1507475135.3,286046996.8,N
1507475155.1,286046997.6,N
1507475175.9,286046994.9,Y
1507475195.7,286046998.2,P
1507475215.5,286047001.1,N
1507475235.4,286047000.5,N
1507475255.2,286046998.1,N
1507475275.1,286046996.5,N
1507475276.0,286046996.5,N
1507475295.8,286046998.9,N
1507475315.6,286046998.3,N
1507475335.5,286046998.6,N
1507475355.3,286047000.8,N
1507475375.1,286046998.4,N
1507475395.9,286047001.1,N
1507475415.7,286047000.7,N
1507475435.6,286047000.8,N
1507475455.4,286046998.2,N
1507475475.2,286046998.2,N
1507475495.1,286047000.6,N
1507475496.0,286047000.6,N
1507475515.8,286047001.0,N
1507475535.6,286046998.3,N
1507475555.5,286047002.6,N
1507475575.3,286047000.1,N
1507475595.2,286047001.4,N
1507475615.9,286047002.8,N
1507475635.7,286047002.6,N
1507475655.6,286047000.2,N
1507475675.4,286047002.0,N
1507475695.2,286047000.7,N
1507475715.1,286046998.2,N
1507475716.0,286046998.2,N
1507475735.8,286046998.5,N
1507475755.7,286046998.7,N
1507475775.5,286047001.1,N
1507475795.3,286047000.9,N
1507475815.2,286046999.9,N
1507475835.0,286046998.5,N
1507475835.9,286046998.5,N
1507475855.8,286047000.4,N
1507475875.6,286046998.1,N
1507475895.4,286046998.6,N
1507475915.3,286046999.6,N
1507475935.1,286046999.6,N
1507475955.9,286046999.1,N
1507475975.7,286046999.0,N
1507475995.5,286046998.8,N
1507476015.4,286046998.7,N
1507476035.2,286046999.1,N
1507476055.1,286046998.4,N
1507476056.0,286046998.4,N
1507476075.8,286046998.7,N
1507476095.6,286046998.6,N
1507476115.5,286046998.1,N
1507476135.3,286046998.7,N
1507476155.1,286046999.1,N
1507476175.9,286046998.9,N
1507476195.7,286046998.7,N
1507476215.6,286046998.6,N
1507476235.4,286046998.5,N
1507476255.2,286046998.9,N
1507476275.1,286046998.9,N
1507476276.0,286046998.9,N
1507476295.8,286047000.5,N
1507476315.7,286046999.7,N
1507476335.5,286047003.8,Y
1507476355.3,286047004.1,P
1507476375.2,286047004.1,N
1507476395.9,286047003.9,N
1507476415.7,286047004.4,N
1507476435.6,286047002.1,N
1507476455.4,286047002.2,N
1507476475.3,286047001.4,N
1507476495.1,286047001.6,N
1507476496.0,286047001.6,N
1507476515.8,286047001.5,N
1507476535.7,286047002.0,N
1507476555.5,286047002.4,N
1507476575.3,286047000.1,N
1507476595.2,286047000.3,N
1507476615.0,286047000.2,N
1507476615.9,286047000.2,N
1507476635.8,286047002.6,N
1507476655.6,286047004.2,N
1507476705.5,286047001.3,E
1507476715.4,286047002.2,N
1507476765.3,286047000.8,E
1507476775.2,286046998.2,N
1507476795.0,286046998.2,P
1507476795.9,286046998.2,P
1507476815.8,286046998.9,Y
1507476835.6,286047000.3,P
1507476855.4,286047001.7,N
1507476875.3,286047001.8,N
1507476895.1,286047001.7,N
1507476915.8,286047002.2,N
1507476935.7,286047000.1,N
1507476955.5,286047001.0,N
1507476975.4,286046998.8,N
1507476995.2,286046999.3,N
1507477015.0,286046998.6,N
1507477015.9,286046998.6,N
1507477035.8,286047000.9,N
1507477055.6,286047002.6,N
1507477075.4,286047004.5,Y
1507477095.3,286047004.6,P
1507477115.1,286047009.8,P
1507477135.9,286047008.1,N
1507477155.7,286047009.9,N
1507477175.5,286047011.0,Y
1507477195.4,286047003.9,P
1507477215.2,286047004.3,P
1507477235.1,286046999.7,N
1507477236.0,286046999.7,N
1507477255.8,286047000.3,N
1507477275.6,286047000.3,N
1507477295.5,286047000.4,N
1507477315.3,286046998.1,N
1507477335.1,286046999.5,N
1507477355.9,286046999.2,N
1507477375.7,286046997.7,N
1507477395.6,286046996.5,N
1507477415.4,286046998.4,N
1507477435.2,286046999.2,N
1507477455.1,286046996.6,N
1507477456.0,286046996.6,N
1507477475.8,286046997.4,N
1507477495.7,286046997.9,N
1507477515.5,286046997.3,N
1507477535.3,286046997.7,N
1507477555.2,286046997.8,N
1507477575.9,286046995.4,N
1507477595.7,286046996.7,N
1507477615.6,286046997.9,N
1507477635.4,286046997.2,N
1507477655.2,286046999.3,N
1507477675.1,286046998.4,N
1507477676.0,286046998.4,N
1507477695.8,286046999.3,N
1507477715.7,286046997.3,N
1507477735.5,286046996.5,N
1507477755.3,286046997.0,N
1507477775.2,286046999.2,N
1507477795.0,286046998.9,N
1507477795.9,286046998.9,N
1507477815.8,286046999.1,N
1507477835.6,286046996.9,N
1507477855.4,286046997.4,N
1507477875.3,286046999.4,N
1507477895.1,286046999.0,N
1507477915.8,286046999.6,N
1507477935.7,286046997.0,N
1507477955.5,286046996.7,Y
1507477975.4,286047001.2,P
1507477995.2,286046999.3,N
1507478015.0,286046998.9,N
1507478015.9,286046998.9,N
1507478035.8,286046999.1,N
1507478055.6,286046996.9,Y
1507478075.4,286046996.5,P
1507478095.3,286046999.1,N
1507478115.1,286046997.3,N
1507478135.9,286046997.9,N
1507478155.7,286046995.1,Y
1507478175.5,286046999.5,P
1507478195.4,286046999.1,N
1507478215.2,286046998.4,N
1507478235.1,286047001.0,N
1507478236.0,286047001.0,N
1507478255.8,286047000.9,N
1507478275.6,286047001.0,N
1507478295.5,286047000.0,N
1507478315.3,286047000.6,N
1507478335.1,286047000.4,N
1507478355.9,286047000.9,N
1507478375.7,286046999.4,N
1507478395.6,286047001.0,N
